This is the latest recevied weather packets stored in our database for station/object LU8FJH-13. If no packets are shown the sender has not sent any weather packets the latest 1 day(s).
| Time | Temp. | Humidity | Pressure | Rain* | Wind** | Luminosity | Snow |
|---|---|---|---|---|---|---|---|
| 1778035201 | 21.67° C | 92% | 1010.8 hPa | 0 mm | 1.79 m/s, 23° | - | - |
| 1778034661 | 21.67° C | 93% | 1010.7 hPa | 0 mm | 1.34 m/s, 23° | - | - |
| 1778034121 | 21.67° C | 93% | 1010.8 hPa | 0 mm | 0.89 m/s, 20° | - | - |
| 1778033581 | 21.67° C | 93% | 1010.7 hPa | 0 mm | 0.89 m/s, 16° | - | - |
| 1778033041 | 21.67° C | 93% | 1010.8 hPa | 0 mm | 1.79 m/s, 16° | - | - |
| 1778032501 | 21.67° C | 93% | 1010.9 hPa | 0 mm | 1.34 m/s, 32° | - | - |
| 1778031961 | 21.67° C | 93% | 1010.9 hPa | 0 mm | 0.45 m/s, 26° | - | - |
| 1778031421 | 21.67° C | 93% | 1010.8 hPa | 0 mm | 1.34 m/s, 17° | - | - |
| 1778030881 | 21.67° C | 93% | 1010.8 hPa | 0 mm | 0.89 m/s, 24° | - | - |
| 1778030341 | 21.67° C | 92% | 1010.7 hPa | 0 mm | 1.79 m/s, 31° | - | - |
| 1778029801 | 21.67° C | 92% | 1010.9 hPa | 0 mm | 0.89 m/s, 23° | - | - |
| 1778029261 | 22.22° C | 91% | 1010.8 hPa | 0 mm | 0.89 m/s, 22° | - | - |
| 1778028721 | 22.22° C | 91% | 1010.8 hPa | 0 mm | 0.89 m/s, 38° | - | - |
| 1778028181 | 22.22° C | 91% | 1010.7 hPa | 0 mm | 0.89 m/s, 26° | - | - |
| 1778027641 | 22.22° C | 90% | 1010.6 hPa | 0 mm | 0.45 m/s, 41° | - | - |
| 1778027101 | 22.22° C | 90% | 1010.6 hPa | 0 mm | 0.89 m/s, 40° | - | - |
| 1778026561 | 22.22° C | 90% | 1010.6 hPa | 0 mm | 0.45 m/s, 69° | - | - |
| 1778026020 | 22.78° C | 89% | 1010.6 hPa | 0 mm | 0.89 m/s, 27° | - | - |
| 1778025481 | 22.78° C | 89% | 1010.6 hPa | 0 mm | 0.89 m/s, 32° | - | - |
| 1778024941 | 23.33° C | 91% | 1010.6 hPa | 0 mm | 0.45 m/s, 64° | - | - |
| 1778024401 | 23.33° C | 91% | 1010.3 hPa | 0 mm | 0.89 m/s, 58° | - | - |
| 1778023861 | 23.33° C | 90% | 1010.3 hPa | 0 mm | 0.89 m/s, 47° | - | - |
| 1778023321 | 23.33° C | 89% | 1010.4 hPa | 0 mm | 0 m/s | - | - |
| 1778022781 | 23.33° C | 88% | 1010.5 hPa | 0 mm | 0.89 m/s, 24° | - | - |
| 1778022241 | 23.33° C | 88% | 1010.4 hPa | 0 mm | 0.89 m/s, 50° | - | - |
* Rain latest hour (hover to see other rain measurements)
** Current wind speed in m/s (hover to see current wind gust speed)